User: anonymous   Login
Location: Bouchavesnes-Bergen
(49.9859°N, 2.9203°E)
Time: 05:56:21
(UTC+00:00)
Language:

PAYLOAD A - Orbit

View from above orbital plane
View from above orbital plane
View from above satellite
View from above satellite

Ground track
Ground track

The orbit data is extracted from the following two-line orbital elements,

1 27840U 03031A   21134.61937034 -.00000015  00000-0  89085-5 0  9994
2 27840  98.3706 103.3884 0098877 143.8667 216.9256 14.38958937938599
Epoch (UTC): 14 May 2021 14:51:53
Eccentricity: 0.0098877
inclination: 98.3706°
perigee height: 691 km
apogee height: 832 km
right ascension of ascending node: 103.3884°
argument of perigee: 143.8667°
revolutions per day: 14.38958937
mean anomaly at epoch: 216.9256°
orbit number at epoch: 93859

The dashed part of the orbit path shows where the satellite is in the earth's shadow,  

DLR